Kegworth, United Kingdom
Current Conditions -  °F | °C
As of 11:20 PM on Wednesday 26 Nov 2014 (Local Time) from EGNX Reporting Station
Moderate Fog Moderate Fog  
Wind Chill: 45°   Ceiling: Unl
Heat Index: 45°   Visibility: 0.12mi
Dew Point: 45°   Wind: 0mph
Humidity: 100%   Direction: NA
Pressure: 29.74"   Gusts: NA
Location:  52.83°N, 1.28°W
Report Text: EGNX 262320Z 00000KT 0200 R27/0375 FG VV/// 07/07 Q1007
Loading
Personal Weather Stations






























Interactive Weather Map New forecast layout! Learn more

10-Day Weather Forecast

Advertisements
Track Severe Weather on mobile